Time,TemperatureF,DewpointF,PressureIn,WindDirection,WindDirectionDegrees,WindSpeedMPH,WindSpeedGustMPH,Humidity,HourlyPrecipIn,Conditions,Clouds,dailyrainin,SoftwareType,DateUTC
2013-03-07 00:01:00,31.0,25.0,30.31,ENE,63,0.0,-999.0,78,-99.99,,,-99.99,,2013-03-07 06:01:00,
2013-03-07 00:11:00,31.0,25.0,30.31,ENE,63,0.0,-999.0,78,-99.99,,,-99.99,,2013-03-07 06:11:00,
2013-03-07 00:21:00,31.0,25.0,30.30,ENE,63,0.0,-999.0,78,-99.99,,,-99.99,,2013-03-07 06:21:00,
2013-03-07 00:31:00,31.0,25.0,30.30,ENE,63,0.0,-999.0,78,-99.99,,,-99.99,,2013-03-07 06:31:00,
2013-03-07 00:42:00,30.0,24.0,30.30,ENE,63,0.0,-999.0,78,-99.99,,,-99.99,,2013-03-07 06:42:00,
2013-03-07 00:52:00,30.0,24.0,30.30,ENE,63,0.0,-999.0,78,-99.99,,,-99.99,,2013-03-07 06:52:00,
2013-03-07 01:01:00,30.0,24.0,30.29,ENE,62,0.0,-999.0,78,-99.99,,,-99.99,,2013-03-07 07:01:00,
2013-03-07 01:11:00,30.0,24.0,30.29,ENE,62,0.0,-999.0,78,-99.99,,,-99.99,,2013-03-07 07:11:00,
2013-03-07 01:21:00,31.0,25.0,30.30,ENE,62,0.0,-999.0,79,-99.99,,,-99.99,,2013-03-07 07:21:00,
2013-03-07 01:32:00,31.0,25.0,30.30,ENE,61,0.0,-999.0,78,-99.99,,,-99.99,,2013-03-07 07:32:00,
2013-03-07 01:42:00,31.0,25.0,30.30,ENE,61,0.0,-999.0,78,-99.99,,,-99.99,,2013-03-07 07:42:00,
2013-03-07 01:53:00,31.0,25.0,30.31,ENE,61,0.0,-999.0,78,-99.99,,,-99.99,,2013-03-07 07:53:00,
2013-03-07 02:02:00,31.0,25.0,30.31,ENE,61,0.0,-999.0,78,-99.99,,,-99.99,,2013-03-07 08:02:00,
2013-03-07 02:12:00,31.0,25.0,30.31,ENE,61,0.0,-999.0,78,-99.99,,,-99.99,,2013-03-07 08:12:00,
2013-03-07 02:22:00,31.0,25.0,30.31,ENE,62,0.0,-999.0,78,-99.99,,,-99.99,,2013-03-07 08:22:00,
2013-03-07 02:33:00,30.0,24.0,30.31,ENE,62,0.0,-999.0,78,-99.99,,,-99.99,,2013-03-07 08:33:00,
2013-03-07 02:43:00,30.0,24.0,30.31,ENE,62,0.0,-999.0,78,-99.99,,,-99.99,,2013-03-07 08:43:00,
2013-03-07 02:54:00,30.0,24.0,30.32,ENE,62,0.0,-999.0,78,-99.99,,,-99.99,,2013-03-07 08:54:00,
2013-03-07 03:03:00,30.0,24.0,30.32,ENE,62,0.0,-999.0,78,-99.99,,,-99.99,,2013-03-07 09:03:00,
2013-03-07 03:12:00,30.0,24.0,30.32,ENE,62,0.0,-999.0,78,-99.99,,,-99.99,,2013-03-07 09:12:00,
2013-03-07 03:23:00,29.0,23.0,30.32,ENE,61,0.0,-999.0,79,-99.99,,,-99.99,,2013-03-07 09:23:00,
2013-03-07 03:32:00,29.0,23.0,30.32,ENE,62,0.0,-999.0,79,-99.99,,,-99.99,,2013-03-07 09:32:00,
2013-03-07 03:42:00,29.0,23.0,30.32,ENE,62,0.0,-999.0,79,-99.99,,,-99.99,,2013-03-07 09:42:00,
2013-03-07 03:53:00,29.0,23.0,30.32,ENE,61,0.0,-999.0,79,-99.99,,,-99.99,,2013-03-07 09:53:00,
2013-03-07 04:02:00,29.0,24.0,30.32,ENE,62,0.0,-999.0,80,-99.99,,,-99.99,,2013-03-07 10:02:00,
2013-03-07 04:12:00,29.0,24.0,30.32,ENE,62,0.0,-999.0,80,-99.99,,,-99.99,,2013-03-07 10:12:00,
2013-03-07 04:23:00,29.0,24.0,30.33,ENE,62,0.0,-999.0,80,-99.99,,,-99.99,,2013-03-07 10:23:00,
2013-03-07 04:33:00,29.0,24.0,30.33,NE,53,0.0,-999.0,80,-99.99,,,-99.99,,2013-03-07 10:33:00,
2013-03-07 04:42:00,29.0,24.0,30.33,NE,53,0.0,-999.0,80,-99.99,,,-99.99,,2013-03-07 10:42:00,
2013-03-07 04:53:00,29.0,24.0,30.34,NE,53,0.0,-999.0,81,-99.99,,,-99.99,,2013-03-07 10:53:00,
2013-03-07 05:02:00,29.0,24.0,30.34,NE,53,0.0,-999.0,81,-99.99,,,-99.99,,2013-03-07 11:02:00,
2013-03-07 05:12:00,29.0,24.0,30.34,NE,53,0.0,-999.0,81,-99.99,,,-99.99,,2013-03-07 11:12:00,
2013-03-07 05:23:00,29.0,24.0,30.35,NE,51,0.0,-999.0,81,-99.99,,,-99.99,,2013-03-07 11:23:00,
2013-03-07 05:33:00,29.0,24.0,30.35,NE,49,0.0,-999.0,81,-99.99,,,-99.99,,2013-03-07 11:33:00,
2013-03-07 05:42:00,29.0,24.0,30.35,NE,49,0.0,-999.0,81,-99.99,,,-99.99,,2013-03-07 11:42:00,
2013-03-07 05:54:00,30.0,25.0,30.34,NE,49,0.0,-999.0,81,-99.99,,,-99.99,,2013-03-07 11:54:00,
2013-03-07 06:02:00,29.0,24.0,30.35,NE,49,0.0,-999.0,81,-99.99,,,-99.99,,2013-03-07 12:02:00,
2013-03-07 06:12:00,29.0,24.0,30.35,NE,49,0.0,-999.0,81,-99.99,,,-99.99,,2013-03-07 12:12:00,
2013-03-07 06:22:00,29.0,24.0,30.35,NE,49,0.0,-999.0,81,-99.99,,,-99.99,,2013-03-07 12:22:00,
2013-03-07 06:33:00,29.0,24.0,30.34,NE,46,0.0,-999.0,81,-99.99,,,-99.99,,2013-03-07 12:33:00,
2013-03-07 06:42:00,29.0,24.0,30.34,NE,46,0.0,-999.0,81,-99.99,,,-99.99,,2013-03-07 12:42:00,
2013-03-07 06:53:00,30.0,25.0,30.36,ENE,67,0.0,-999.0,81,-99.99,,,-99.99,,2013-03-07 12:53:00,
2013-03-07 07:02:00,30.0,25.0,30.35,ENE,72,0.0,-999.0,81,-99.99,,,-99.99,,2013-03-07 13:02:00,
2013-03-07 07:12:00,30.0,25.0,30.35,ENE,72,0.0,-999.0,81,-99.99,,,-99.99,,2013-03-07 13:12:00,
2013-03-07 07:22:00,31.0,26.0,30.36,East,91,0.0,-999.0,81,-99.99,,,-99.99,,2013-03-07 13:22:00,
2013-03-07 07:32:00,32.0,27.0,30.36,East,82,0.0,-999.0,80,-99.99,,,-99.99,,2013-03-07 13:32:00,
2013-03-07 07:42:00,32.0,27.0,30.36,East,82,0.0,-999.0,80,-99.99,,,-99.99,,2013-03-07 13:42:00,
2013-03-07 07:53:00,33.0,27.0,30.37,ENE,61,0.0,-999.0,77,-99.99,,,-99.99,,2013-03-07 13:53:00,
2013-03-07 08:02:00,34.0,27.0,30.37,East,98,0.0,-999.0,75,-99.99,,,-99.99,,2013-03-07 14:02:00,
2013-03-07 08:12:00,34.0,27.0,30.37,East,98,0.0,-999.0,75,-99.99,,,-99.99,,2013-03-07 14:12:00,
2013-03-07 08:22:00,34.0,26.0,30.38,East,88,0.0,-999.0,71,-99.99,,,-99.99,,2013-03-07 14:22:00,
2013-03-07 08:42:00,34.0,25.0,30.38,ENE,74,1.0,-999.0,70,-99.99,,,-99.99,,2013-03-07 14:42:00,
2013-03-07 08:54:00,35.0,26.0,30.38,ESE,105,1.0,-999.0,68,-99.99,,,-99.99,,2013-03-07 14:54:00,
2013-03-07 09:02:00,36.0,26.0,30.38,East,88,2.0,-999.0,66,-99.99,,,-99.99,,2013-03-07 15:02:00,
2013-03-07 09:12:00,36.0,26.0,30.38,East,88,2.0,-999.0,66,-99.99,,,-99.99,,2013-03-07 15:12:00,
2013-03-07 09:22:00,36.0,26.0,30.38,East,94,2.0,-999.0,66,-99.99,,,-99.99,,2013-03-07 15:22:00,
2013-03-07 09:32:00,37.0,26.0,30.39,East,80,3.0,-999.0,65,-99.99,,,-99.99,,2013-03-07 15:32:00,
2013-03-07 09:42:00,37.0,26.0,30.39,East,80,3.0,-999.0,65,-99.99,,,-99.99,,2013-03-07 15:42:00,
2013-03-07 09:53:00,37.0,26.0,30.39,ESE,102,2.0,-999.0,64,-99.99,,,-99.99,,2013-03-07 15:53:00,
2013-03-07 10:02:00,38.0,27.0,30.40,NE,50,1.0,-999.0,64,-99.99,,,-99.99,,2013-03-07 16:02:00,
2013-03-07 10:12:00,38.0,27.0,30.40,NE,50,1.0,-999.0,64,-99.99,,,-99.99,,2013-03-07 16:12:00,
2013-03-07 10:23:00,38.0,26.0,30.39,ESE,106,1.0,-999.0,62,-99.99,,,-99.99,,2013-03-07 16:23:00,
2013-03-07 10:32:00,39.0,27.0,30.39,NE,36,3.0,-999.0,61,-99.99,,,-99.99,,2013-03-07 16:32:00,
2013-03-07 10:42:00,39.0,27.0,30.39,NE,36,3.0,-999.0,61,-99.99,,,-99.99,,2013-03-07 16:42:00,
2013-03-07 10:53:00,40.0,27.0,30.39,NNE,33,2.0,-999.0,60,-99.99,,,-99.99,,2013-03-07 16:53:00,
2013-03-07 11:02:00,41.0,28.0,30.39,ENE,57,2.0,-999.0,59,-99.99,,,-99.99,,2013-03-07 17:02:00,
2013-03-07 11:12:00,41.0,28.0,30.39,ENE,57,2.0,-999.0,59,-99.99,,,-99.99,,2013-03-07 17:12:00,
2013-03-07 11:22:00,41.0,27.0,30.39,North,360,2.0,-999.0,58,-99.99,,,-99.99,,2013-03-07 17:22:00,
2013-03-07 11:32:00,41.0,27.0,30.38,ESE,117,2.0,-999.0,58,-99.99,,,-99.99,,2013-03-07 17:32:00,
2013-03-07 11:43:00,41.0,27.0,30.38,ESE,117,2.0,-999.0,58,-99.99,,,-99.99,,2013-03-07 17:43:00,
2013-03-07 11:54:00,42.0,27.0,30.38,West,273,1.0,-999.0,56,-99.99,,,-99.99,,2013-03-07 17:54:00,
2013-03-07 12:03:00,42.0,28.0,30.38,East,88,0.0,-999.0,57,-99.99,,,-99.99,,2013-03-07 18:03:00,
2013-03-07 12:12:00,42.0,28.0,30.38,East,88,0.0,-999.0,57,-99.99,,,-99.99,,2013-03-07 18:12:00,
2013-03-07 12:22:00,44.0,29.0,30.37,NNE,29,2.0,-999.0,55,-99.99,,,-99.99,,2013-03-07 18:22:00,
2013-03-07 12:32:00,43.0,28.0,30.37,NE,37,2.0,-999.0,56,-99.99,,,-99.99,,2013-03-07 18:32:00,
2013-03-07 12:42:00,43.0,28.0,30.37,NE,37,2.0,-999.0,56,-99.99,,,-99.99,,2013-03-07 18:42:00,
2013-03-07 12:52:00,44.0,30.0,30.37,WNW,299,2.0,-999.0,57,-99.99,,,-99.99,,2013-03-07 18:52:00,
2013-03-07 13:02:00,44.0,30.0,30.36,North,355,3.0,-999.0,57,-99.99,,,-99.99,,2013-03-07 19:02:00,
2013-03-07 13:12:00,44.0,30.0,30.35,NNE,22,2.0,-999.0,57,-99.99,,,-99.99,,2013-03-07 19:12:00,
2013-03-07 13:23:00,44.0,30.0,30.35,NNE,22,2.0,-999.0,57,-99.99,,,-99.99,,2013-03-07 19:23:00,
2013-03-07 13:34:00,45.0,30.0,30.34,NE,53,2.0,-999.0,55,-99.99,,,-99.99,,2013-03-07 19:34:00,
2013-03-07 13:43:00,45.0,30.0,30.34,NE,53,2.0,-999.0,55,-99.99,,,-99.99,,2013-03-07 19:43:00,
2013-03-07 13:53:00,46.0,31.0,30.34,ENE,58,2.0,-999.0,56,-99.99,,,-99.99,,2013-03-07 19:53:00,
2013-03-07 14:02:00,45.0,30.0,30.33,NNE,26,2.0,-999.0,56,-99.99,,,-99.99,,2013-03-07 20:02:00,
2013-03-07 14:13:00,45.0,30.0,30.33,NNE,26,2.0,-999.0,56,-99.99,,,-99.99,,2013-03-07 20:13:00,
2013-03-07 14:22:00,46.0,31.0,30.33,North,355,1.0,-999.0,55,-99.99,,,-99.99,,2013-03-07 20:22:00,
2013-03-07 14:42:00,46.0,30.0,30.32,NE,53,2.0,-999.0,54,-99.99,,,-99.99,,2013-03-07 20:42:00,
2013-03-07 14:54:00,46.0,30.0,30.32,NNW,345,3.0,-999.0,54,-99.99,,,-99.99,,2013-03-07 20:54:00,
2013-03-07 15:02:00,47.0,31.0,30.32,NE,53,3.0,-999.0,53,-99.99,,,-99.99,,2013-03-07 21:02:00,
2013-03-07 15:12:00,47.0,31.0,30.32,NE,53,3.0,-999.0,53,-99.99,,,-99.99,,2013-03-07 21:12:00,
2013-03-07 15:22:00,47.0,31.0,30.32,North,360,0.0,-999.0,53,-99.99,,,-99.99,,2013-03-07 21:22:00,
2013-03-07 15:32:00,47.0,31.0,30.31,NNW,342,1.0,-999.0,53,-99.99,,,-99.99,,2013-03-07 21:32:00,
2013-03-07 15:42:00,47.0,31.0,30.31,NNW,342,1.0,-999.0,53,-99.99,,,-99.99,,2013-03-07 21:42:00,
2013-03-07 15:53:00,47.0,31.0,30.30,NNE,23,1.0,-999.0,53,-99.99,,,-99.99,,2013-03-07 21:53:00,
2013-03-07 16:01:00,48.0,31.0,30.30,NNE,23,2.0,-999.0,52,-99.99,,,-99.99,,2013-03-07 22:01:00,
2013-03-07 16:12:00,48.0,31.0,30.30,NNE,23,2.0,-999.0,52,-99.99,,,-99.99,,2013-03-07 22:12:00,
2013-03-07 16:22:00,49.0,32.0,30.30,NNE,24,1.0,-999.0,51,-99.99,,,-99.99,,2013-03-07 22:22:00,
2013-03-07 16:32:00,48.0,31.0,30.30,NNE,26,3.0,-999.0,51,-99.99,,,-99.99,,2013-03-07 22:32:00,
2013-03-07 16:42:00,48.0,31.0,30.30,NNE,26,3.0,-999.0,51,-99.99,,,-99.99,,2013-03-07 22:42:00,
2013-03-07 16:54:00,48.0,29.0,30.29,NE,49,1.0,-999.0,47,-99.99,,,-99.99,,2013-03-07 22:54:00,
2013-03-07 17:02:00,48.0,28.0,30.29,ESE,102,1.0,-999.0,46,-99.99,,,-99.99,,2013-03-07 23:02:00,
2013-03-07 17:12:00,48.0,28.0,30.29,ESE,102,1.0,-999.0,46,-99.99,,,-99.99,,2013-03-07 23:12:00,
2013-03-07 17:22:00,47.0,27.0,30.29,East,91,2.0,-999.0,46,-99.99,,,-99.99,,2013-03-07 23:22:00,
2013-03-07 17:33:00,47.0,27.0,30.29,East,82,1.0,-999.0,46,-99.99,,,-99.99,,2013-03-07 23:33:00,
2013-03-07 17:43:00,47.0,27.0,30.29,East,82,1.0,-999.0,46,-99.99,,,-99.99,,2013-03-07 23:43:00,
2013-03-07 17:54:00,47.0,28.0,30.29,ENE,74,0.0,-999.0,47,-99.99,,,-99.99,,2013-03-07 23:54:00,
2013-03-07 18:03:00,47.0,28.0,30.29,ENE,78,0.0,-999.0,48,-99.99,,,-99.99,,2013-03-08 00:03:00,
2013-03-07 18:12:00,47.0,28.0,30.29,ENE,78,0.0,-999.0,48,-99.99,,,-99.99,,2013-03-08 00:12:00,
2013-03-07 18:23:00,46.0,29.0,30.29,ENE,78,0.0,-999.0,51,-99.99,,,-99.99,,2013-03-08 00:23:00,
2013-03-07 18:33:00,45.0,29.0,30.29,ENE,71,0.0,-999.0,53,-99.99,,,-99.99,,2013-03-08 00:33:00,
2013-03-07 18:43:00,45.0,29.0,30.29,ENE,71,0.0,-999.0,53,-99.99,,,-99.99,,2013-03-08 00:43:00,
2013-03-07 18:53:00,44.0,29.0,30.30,ENE,61,0.0,-999.0,55,-99.99,,,-99.99,,2013-03-08 00:53:00,
2013-03-07 19:02:00,44.0,29.0,30.30,ENE,61,0.0,-999.0,55,-99.99,,,-99.99,,2013-03-08 01:02:00,
2013-03-07 19:11:00,44.0,29.0,30.30,ENE,61,0.0,-999.0,55,-99.99,,,-99.99,,2013-03-08 01:11:00,
2013-03-07 19:21:00,43.0,29.0,30.30,NE,39,0.0,-999.0,57,-99.99,,,-99.99,,2013-03-08 01:21:00,
2013-03-07 19:32:00,43.0,29.0,30.30,NE,38,0.0,-999.0,58,-99.99,,,-99.99,,2013-03-08 01:32:00,
2013-03-07 19:42:00,43.0,29.0,30.30,NE,38,0.0,-999.0,58,-99.99,,,-99.99,,2013-03-08 01:42:00,
2013-03-07 19:52:00,43.0,29.0,30.30,NE,38,0.0,-999.0,58,-99.99,,,-99.99,,2013-03-08 01:52:00,
2013-03-07 20:01:00,43.0,29.0,30.30,NE,38,0.0,-999.0,58,-99.99,,,-99.99,,2013-03-08 02:01:00,
2013-03-07 20:11:00,43.0,29.0,30.30,NE,38,0.0,-999.0,58,-99.99,,,-99.99,,2013-03-08 02:11:00,